Simultaneous Nadir Overpasses (SNOs) Predictions

Prediction of SNOs between GOES-16 and METOP-C Satellite Orbit:

Table of predicted SNOs for the next 14.0 days since TLE Epoch: 6/26/2022
Index Date Time (GOES-16) GOES-16 Lat,Lon METOP-C Lat,Lon Distance(km) Time Diff (sec)
1 06/27/2022 14:39:05 0.03, -75.21 0.52, -77.29 238.06 80
2 06/28/2022 14:21:06 0.03, -75.21 -0.64, -72.31 331.35 80
3 06/30/2022 02:37:27 -0.03, -75.21 -0.40, -76.91 193.44 80
4 07/01/2022 02:19:27 -0.03, -75.22 0.71, -71.91 376.26 80
5 07/02/2022 14:35:38 0.02, -75.24 0.33, -76.47 141.14 80
6 07/03/2022 14:17:40 0.02, -75.25 -0.84, -71.49 428.97 80
7 07/05/2022 02:34:00 -0.02, -75.26 -0.18, -76.09 94.49 80
8 07/06/2022 02:16:01 -0.02, -75.27 0.94, -71.10 476.07 80
9 07/07/2022 14:32:12 0.02, -75.31 0.11, -75.66 40.31 80
10 07/10/2022 02:30:33 -0.02, -75.33 0.01, -75.27 7.82 80
